Flag for Germany Weather past 2 weeks in Bornheim (Rheinland), North Rhine-Westphalia, Germany

Now
53 °F

Overcast.


Feels Like: 53 °F
Forecast: 47 / 69 °F
Wind: 1 mph from South

Location: Bonn-Hangelar

Current Time: May 30, 2015 at 9:17:26 PM

Latest Report: May 30, 2015 at 9:00 PM


Visibility: 22 mi

Pressure: 30.04 "Hg

Humidity: 73%

Dew point: 44 °F

Location of Bornheim (Rheinland)Location

Historic Weather in Bornheim (Rheinland) — Graph

°F

Bornheim (Rheinland) temperature yesterday

Maximum temperature yesterday: 58 °F (at 4:00 PM)
Minimum temperature yesterday: 45 °F (at 6:00 AM)
Average temperature yesterday: 52 °F

Past Weeks' High & Low Weather Summary

 TemperatureHumidityPressure
High66 °F (May 23, 3:00 PM)99% (May 16, 6:00 PM)30.37 "Hg (May 16, 6:00 PM)
Low39 °F (May 21, 5:00 AM)44% (May 22, 4:00 PM)29.67 "Hg (May 18, 8:00 PM)
Average53 °F75%30.08 "Hg
* Reported May 15 8:00 PM — May 30 8:00 PM, Bornheim (Rheinland), Weather by CustomWeather, © 2015

Note: Actual official high and low records may vary slightly from our data, if they occured in-between our weather recording intervals... More about our weather records

Advertising

Bornheim (Rheinland) weather history for previous 24 hours

 ConditionsComfort  
Time TempWeatherWind HumidityBarometerVisibility
8:00 PM
Sat, May 30
53 °FOvercast.2 mph74%30.03 "Hg22 mi
7:00 PM55 °FOvercast.5 mph67%30.03 "Hg31 mi
6:00 PM55 °FOvercast.5 mph68%30.02 "Hg16 mi
5:00 PM54 °FOvercast.5 mph73%30.02 "Hg25 mi
4:00 PM52 °FOvercast.3 mph77%30.01 "Hg19 mi
3:00 PM54 °FOvercast.8 mph58%29.99 "Hg19 mi
2:00 PM54 °FOvercast.9 mph58%29.98 "Hg19 mi
1:00 PM55 °FPartly sunny.9 mph59%29.96 "Hg2 mi
12:00 PM53 °FPartly sunny.8 mph66%29.96 "Hg19 mi
11:00 AM53 °FPartly sunny.7 mph69%29.95 "Hg19 mi
10:00 AM52 °FPartly sunny.7 mph72%29.94 "Hg16 mi
9:00 AM50 °FScattered clouds.6 mph83%29.93 "Hg16 mi
8:00 AM49 °FPartly sunny.7 mph89%29.91 "Hg1 mi
7:00 AM47 °FLow clouds.7 mph95%29.90 "Hg11 mi
6:00 AM47 °FLow clouds.7 mph96%29.88 "Hg9 mi
5:00 AM47 °FPassing clouds.7 mph95%29.87 "Hg7 mi
4:00 AM48 °FLow clouds.6 mph96%29.85 "Hg6 mi
3:00 AM48 °FLow clouds.7 mph96%29.84 "Hg6 mi
2:00 AM49 °FPassing clouds.8 mph93%29.83 "Hg11 mi
1:00 AM48 °FPassing clouds.5 mph97%29.82 "Hg16 mi
12:00 AM46 °FLight rain. Low clouds.3 mph99%29.83 "Hg13 mi
11:00 PM
Fri, May 29
46 °FRain. Low clouds.5 mph99%29.84 "Hg2 mi
10:00 PM47 °FLight freezing rain. Low clouds.6 mph95%29.82 "Hg4 mi
9:00 PM55 °FLight rain. Overcast.8 mph69%29.78 "Hg15 mi
Weather by CustomWeather, © 2015

See weather overviewHow to use our weather pages